BMCB-27 Weather Reports


Display with metric or nautical units.
time (UTC)temp
F
wind
direction
speed
MPH
gust
MPH
rain 1hr
in
rain 24hr
in
rain mn
in
humidity
%
barometer
mb
20260505164936 50 0 0.0 0.0 0.00 0.27 0.27 10 1006.9
20260505163231 50 0 0.0 0.0 0.00 0.27 0.27 10 1006.9
20260505162006 50 0 0.0 0.0 0.00 0.27 0.27 10 1007.0
20260505160422 50 0 0.0 0.0 0.00 0.27 0.27 10 1007.0
20260505152140 50 0 0.0 0.0 0.00 0.27 0.27 10 1007.2
20260505150633 50 0 0.0 0.0 0.00 0.28 0.27 10 1007.2
20260505124756 51 0 0.0 0.0 0.00 0.29 0.27 10 1007.9
20260505124230 51 0 0.0 0.0 0.00 0.29 0.27 10 1007.9
20260505122143 51 0 0.0 0.0 0.00 0.29 0.27 10 1007.8
20260505115742 51 0 0.0 0.0 0.00 0.29 0.27 10 1007.9
20260505113400 51 0 0.0 0.0 0.00 0.29 0.27 10 1008.0
20260505111808 51 0 0.0 0.0 0.00 0.29 0.27 10 1008.0
20260505101254 52 0 0.0 0.0 0.00 0.29 0.27 10 1008.3
20260505100139 51 0 0.0 0.0 0.00 0.29 0.27 10 1008.4
20260505095538 51 0 0.0 0.0 0.00 0.29 0.27 10 1008.4
20260505094927 51 0 0.0 0.0 0.00 0.29 0.27 10 1008.4
20260505094402 51 0 0.0 0.0 0.00 0.29 0.27 10 1008.4
20260505092746 51 0 0.0 0.0 0.00 0.29 0.27 10 1008.4
20260505092109 51 0 0.0 0.0 0.00 0.29 0.27 10 1008.3
20260505090759 51 0 0.0 0.0 0.00 0.29 0.27 10 1008.3
20260505090122 51 0 0.0 0.0 0.00 0.29 0.27 10 1008.4
20260505085337 51 0 0.0 0.0 0.00 0.29 0.27 10 1008.4
20260505084811 51 0 0.0 0.0 0.00 0.29 0.27 10 1008.5
20260505082059 51 0 0.0 0.0 0.00 0.29 0.27 10 1008.5
20260505080554 51 0 0.0 0.0 0.00 0.29 0.27 10 1008.6
20260505073558 51 0 0.0 0.0 0.00 0.29 0.27 10 1008.6
20260505072713 51 0 0.0 0.0 0.00 0.29 0.27 10 1008.6
20260505071557 52 0 0.0 0.0 0.01 0.29 0.27 10 1008.6
20260505071018 52 0 0.0 0.0 0.01 0.29 0.27 10 1008.6
20260505062628 52 0 0.0 0.0 0.02 0.29 0.27 10 1008.6
20260505061253 52 0 0.0 0.0 0.02 0.29 0.27 10 1008.6
20260505054847 53 0 0.0 0.0 0.06 0.28 0.26 10 1008.6
20260505052726 53 0 0.0 0.0 0.13 0.28 0.25 10 1008.6
20260505041722 53 0 0.0 0.0 0.15 0.17 0.15 10 1008.6
20260505035635 53 0 0.0 0.0 0.07 0.09 0.07 99 1008.7
20260505034714 53 0 0.0 0.0 0.05 0.07 0.05 99 1008.8
20260505033753 53 0 0.0 0.0 0.03 0.06 0.03 99 1008.8
20260505031937 53 0 0.0 0.0 0.01 0.03 0.01 99 1008.9
20260505030601 53 0 0.0 0.0 0.00 0.02 0.00 99 1009.1
20260505025926 53 0 0.0 0.0 0.00 0.02 0.00 99 1009.2
20260505023753 53 0 0.0 0.0 0.00 0.02 0.00 99 1009.2
20260505023009 53 0 0.0 0.0 0.00 0.02 0.00 99 1009.3
20260505022222 53 0 0.0 0.0 0.00 0.02 0.00 99 1009.3
20260505021547 53 0 0.0 0.0 0.00 0.02 0.00 99 1009.2
20260505020541 53 0 0.0 0.0 0.00 0.02 0.00 99 1009.2
20260505014324 53 0 0.0 0.0 0.00 0.02 0.00 99 1009.2
20260505013318 53 0 0.0 0.0 0.00 0.02 0.00 99 1009.2
20260505011145 53 0 0.0 0.0 0.00 0.02 0.00 99 1009.3
20260505005220 53 0 0.0 0.0 0.00 0.02 0.00 99 1009.4
20260505003954 52 0 0.0 0.0 0.00 0.02 0.00 99 1009.5
20260505003209 53 0 0.0 0.0 0.00 0.02 0.00 99 1009.6
20260505002448 53 0 0.0 0.0 0.00 0.02 0.00 99 1009.7
20260505001112 53 0 0.0 0.0 0.00 0.02 0.00 99 1009.9
20260504235432 52 0 0.0 0.0 0.00 0.02 0.00 98 1010.0
20260504232526 53 0 0.0 0.0 0.00 0.02 0.00 98 1010.1
20260504222857 53 0 0.0 0.0 0.00 0.02 0.00 96 1010.6
20260504221838 52 0 0.0 0.0 0.00 0.02 0.00 97 1010.7
20260504215457 52 0 0.0 0.0 0.00 0.02 0.02 97 1010.9
20260504214713 53 0 0.0 0.0 0.00 0.02 0.02 96 1010.9
20260504214146 53 0 0.0 0.0 0.00 0.02 0.02 96 1010.8
20260504213314 53 0 0.0 0.0 0.00 0.02 0.02 96 1011.0
20260504212748 53 0 0.0 0.0 0.00 0.02 0.02 96 1011.0
20260504211119 53 0 0.0 0.0 0.00 0.02 0.02 95 1011.1
20260504210212 53 0 0.0 0.0 0.00 0.02 0.02 95 1011.1
20260504205115 53 0 0.0 0.0 0.00 0.02 0.02 95 1011.2
20260504204557 53 0 0.0 0.0 0.00 0.02 0.02 95 1011.2
20260504202850 53 0 0.0 0.0 0.00 0.02 0.02 95 1011.2
20260504202227 53 0 0.0 0.0 0.00 0.02 0.02 95 1011.2
20260504201504 53 0 0.0 0.0 0.00 0.02 0.02 96 1011.2
20260504193807 54 0 0.0 0.0 0.00 0.02 0.02 94 1011.0
20260504190812 55 0 0.0 0.0 0.00 0.02 0.02 92 1010.7
20260504184921 56 0 0.0 0.0 0.00 0.02 0.02 90 1010.6
20260504183619 56 0 0.0 0.0 0.00 0.02 0.02 89 1010.6